date:2026-04-16T07:56:55+00:00
validtle:1
satid:56745
launchyear:2023
epoch:26102.52602949
epochday:102
tleage:4
tleclassification:U
active:1
name:SNIPE
meananomly:141.5408
meanmotion:15.4370
rightascension:0.0000
declination:0.0000
semimajoraxis:6813.3520092679
altitudeatperigee:432
altitudeatapogee:438
inclination:97.5329
eccentricity:0.0004304
argumentofperigree:218.5533
nickname:SNIPE
idesg:23072C  
cosparid:2023-072C
altkm:440.63094372646
velkms:7.6462718252049
velkmh:27527
onumepoch:16010
onumnow:247204.43
otype:1
otypedesc:Low Earth Orbit (LEO)
status:1
timestamp:2026-04-12T12:37:29+00:00
nowjuliandate:2461146.831196
nowepochdate:26106.3311921296
TLE:
SNIPE 2
1 56745U 23072C   26102.52602949  .00017948  00000+0  39933-3 0  9997
2 56745  97.5329 309.1770 0004304 218.5533 141.5408 15.43695775160102